Regional Weather Roundup
Issued by NWS State College, PA

Home | Current Version | Previous Version | Text Only | Print | Product List | Glossary On
Versions: 1 2 3 4 5 6 7 8 9 10 11 12 13 14 15 16 17 18 19 20 21 22 23 24 25 26 27 28 29 30 31 32 33 34 35 36 37 38 39 40 41 42 43 44 45 46 47 48 49 50
000
ASUS41 KCTP 261003
RWRCTP

REGIONAL WEATHER ROUNDUP
NATIONAL WEATHER SERVICE STATE COLLEGE PA
500 AM EST FRI DEC 26 2014

Note: "fair" indicates few or no clouds below 12,000 feet with no
significant weather and/or obstructions to visibility.

* = STATION THAT DOES NOT REPORT PRECIPITATION /E.G. RAIN...SNOW...ETC/
    THUNDER OR FOG.

PAZ002>004-007>009-013>016-020>023-029>032-261100-
WESTERN PENNSYLVANIA

CITY           SKY/WX    TMP DP  RH WIND       PRES   REMARKS
ERIE           CLOUDY    37  27  67 S10       30.21R
MEADVILLE      CLOUDY    35  27  72 S8        30.19S
FRANKLIN*      CLOUDY    34  27  75 SW8       30.22R
NEW CASTLE       N/A     35  29  79 CALM      30.24R
BEAVER COUNTY  NOT AVBL
BUTLER*        CLOUDY    36  27  69 W5        30.25R
PITTSBURGH INT MOCLDY    35  28  75 S3        30.24R
PITTSBURGH     MOCLDY    34  25  69 SW5       30.23R
INDIANA*       CLOUDY    36  28  75 W8        30.26S
LATROBE        PTCLDY    34  30  86 S5        30.25S
WASHINGTON CO* NOT AVBL
$$

PAZ004>006-010>012-017>019-024>028-033>037-041-042-045-046-049>053-261100-
CENTRAL PENNSYLVANIA

CITY           SKY/WX    TMP DP  RH WIND       PRES   REMARKS
BRADFORD       CLOUDY    32  25  75 W7        30.17R
DUBOIS         CLOUDY    34  26  72 W10       30.19R
CLEARFIELD     CLOUDY    35  26  69 W10       30.20S
JOHNSTOWN      CLOUDY    32  26  78 W13       30.17S
ALTOONA        CLEAR     31  26  82 CALM      30.21R
STATE COLLEGE  PTCLDY    34  27  77 NW8       30.21R
WILLIAMSPORT   CLEAR     32  25  75 NW5       30.21R
SELINSGROVE    CLEAR     28  25  88 CALM      30.23R
FT INDIANTOWN  CLEAR     32  27  81 SW5       30.22R
CAPITAL CITY   CLEAR     31  27  85 CALM      30.23R
HARRISBURG     CLEAR     29  25  85 CALM      30.22R
YORK           CLEAR     28  24  85 CALM      30.23R
$$

PAZ038>040-043-044-047-048-054-055-060>062-067>071-261100-
EASTERN PENNSYLVANIA

CITY           SKY/WX    TMP DP  RH WIND       PRES   REMARKS
SCRANTON       CLEAR     33  26  75 SW7       30.16R
MOUNT POCONO   CLEAR     32  25  75 W9        30.10R
ALLENTOWN      CLEAR     33  26  75 SW7       30.19R
QUAKERTOWN*    NOT AVBL
READING        CLEAR     36  27  69 CALM      30.21R
LANCASTER      CLEAR     32  27  81 W3        30.23R
COATESVILLE    SUNNY     36  30  80 SW3       30.22R
POTTSTOWN      CLEAR     30  26  85 CALM      30.22R
BLUE BELL      CLEAR     34  30  86 CALM      30.21R
DOYLESTOWN     CLEAR     33  29  85 SW6       30.20R
WILLOW GROVE   NOT AVBL
NORTH PHILA    CLEAR     37  27  67 SW7       30.24R
PHILADELPHIA   CLEAR     35  29  78 W9        30.25R
$$


USA.gov is the U.S. government's official web portal to all federal, state and local government web resources and services.